עמוד ראשי
METAR-TAF:

METAR-TAF

שדות תעופה :

קואנקה, אקוודור

קו רוחב: 02-53-22S, קו אורך: 078-59-04W, גובה: 2532מטר

תצפית מזג אוויר נוכחית

הדו"ח נערך לפני 52דקות, בשעה 15:00 UTC
רוח 4קשר מכיוון מזרח
טמפרטורת 17 צלסיוס
לחות 82%
לחץ 1029 hPa
ראות 10 קילומטר או יותר
מעט עננים בגובה 1000רגל
עננים פזורים בגובה 2600רגל
עננים בינוניים בגובה 8000רגל

METAR: SECU 241500Z 08004KT 9999 FEW010 SCT026 BKN080 17/14 Q1029

זמן: 10:52 (15:52 UTC)


TAF: חסר

תצפיות ותחזיות מזג אוויר לגבי יותר מ- 4,000 שדות תעופה ברחבי העולם. דוחות METAR ו- TAF.

התחנות הזמינות מסומנות בנקודות צהובות ואדומות על גבי המפה.

העבר את העכבר לנקודה הצבעונית על מנת לראות את שם התחנה.

לאחר מכן, לחץ כדי לראות את תוכן ואת תחזיות מזג האוויר.

כדי לשנות את המפה: לחץ על הכפתורים הירוקים עם הפלוס השחור כדי להתקרב; על הכפתור הירוק עם המקף כדי להתרחק; או בחיצים הירוקים למפות סמוכות.


METAR-TAF: